Location: Dogstar Observatory
(35.3981°N, 83.1078°W)
Time: 16:02:21
(UTC-05:00)

Hubble Space Telescope - Visible Passes

Search period start: 01 December 2021 00:00
Search period end: 11 December 2021 00:00
Orbit: 534 x 538 km, 28.5° (Epoch: 01 December)

Date Brightness Start Highest point End Pass type
(mag) Time Alt. Az. Time Alt. Az. Time Alt. Az.
01 Dec 2.1 05:25:24 28° S 05:25:24 28° S 05:28:54 10° SE visible
02 Dec 2.5 05:14:56 24° S 05:14:56 24° S 05:17:35 10° SE visible
02 Dec 3.2 06:52:54 10° SW 06:54:43 13° SSW 06:56:31 10° S visible
03 Dec 3.0 05:04:28 19° SSE 05:04:28 19° SSE 05:06:14 10° SE visible
03 Dec 3.3 06:42:58 10° SSW 06:43:26 10° SSW 06:43:55 10° SSW visible
04 Dec 3.4 04:54:00 14° SSE 04:54:00 14° SSE 04:54:49 10° SE visible
